Shenandoah, IA

10:52 PM CDT on May 28, 2017 (GMT -0500)
Shenandoah Municipal

Weather History for KSDA - June, 2013

Change the Weather History Date:

Saturday, June 15, 2013

  Actual Average Record
Temperature  
Mean Temperature 75 °F -  
Max Temperature 84 °F 84 °F 101 °F (1952)
Min Temperature 66 °F 59 °F 46 °F (1969)
Cooling Degree Days 10    
Growing Degree Days 25 (Base 50)    
Moisture  
Dew Point 64 °F    
Average Humidity 73    
Maximum Humidity 83    
Minimum Humidity 51    
Precipitation  
Precipitation 0.07 in - - ()
Sea Level Pressure  
Sea Level Pressure 29.92 in    
Wind  
Wind Speed 8 mph (South)    
Max Wind Speed 18 mph    
Max Gust Speed 24 mph    
Visibility 10 miles    
Events Rain    
Averages and records for this station are not official NWS values.
T = Trace of Precipitation, MM = Missing Value Source: NWS Daily Summary

Daily Weather History Graph

Daily Weather History Graph

Search for Another Location

Airport or City:

Trip Planner

Search our weather history database for the weather conditions in past years. The results will help you decide how hot, cold, wet, or windy it might be!

Date:

Astronomy

Jun. 15, 2013 Rise Set
Actual Time 5:49 AM CDT 8:54 PM CDT
Civil Twilight 5:16 AM CDT 9:28 PM CDT
Nautical Twilight 4:33 AM CDT 10:10 PM CDT
Astronomical Twilight 3:43 AM CDT 11:01 PM CDT
Moon 12:27 PM CDT (6/15) 12:28 AM CDT (6/15)
Length of Visible Light 16h 11m
Length of Day
15h 05m
Waxing Crescent, 40% of the Moon is Illuminated
Jun 15
Waxing Crescent
Jun 16
First Quarter
Jun 23
Full
Jun 29
Last Quarter
Jul 8
New

Hourly Weather History & Observations

Time (CDT) Temp. Heat Index Dew Point Humidity Pressure Visibility Wind Dir Wind Speed Gust Speed Precip Events Conditions
12:16 AM 68.0 °F - 62.6 °F 83% 29.95 in 10.0 mi South 10.4 mph - 0.12 in Rain Rain
12:36 AM 68.0 °F - 62.6 °F 83% 29.93 in 10.0 mi SE 12.7 mph 16.1 mph 0.12 in   Overcast
12:56 AM 69.8 °F - 62.6 °F 78% 29.91 in 10.0 mi SSE 12.7 mph - N/A   Scattered Clouds
1:18 AM 69.8 °F - 62.6 °F 78% 29.91 in 10.0 mi SE 9.2 mph - N/A   Scattered Clouds
1:39 AM 69.8 °F - 62.6 °F 78% 29.91 in 10.0 mi SE 6.9 mph - N/A   Scattered Clouds
1:56 AM 69.8 °F - 60.8 °F 73% 29.90 in 10.0 mi SE 9.2 mph - N/A   Scattered Clouds
2:16 AM 69.8 °F - 60.8 °F 73% 29.91 in 10.0 mi SE 6.9 mph - N/A   Scattered Clouds
2:37 AM 68.0 °F - 60.8 °F 78% 29.91 in 10.0 mi SE 9.2 mph - N/A   Scattered Clouds
2:56 AM 69.8 °F - 62.6 °F 78% 29.89 in 10.0 mi SSE 12.7 mph - N/A   Scattered Clouds
3:16 AM 69.8 °F - 62.6 °F 78% 29.88 in 10.0 mi SE 17.3 mph 24.2 mph N/A   Scattered Clouds
3:37 AM 69.8 °F - 62.6 °F 78% 29.89 in 10.0 mi SE 12.7 mph 18.4 mph N/A   Scattered Clouds
3:56 AM 69.8 °F - 62.6 °F 78% 29.89 in 10.0 mi ESE 8.1 mph - N/A   Scattered Clouds
4:16 AM 68.0 °F - 60.8 °F 78% 29.89 in 10.0 mi ESE 8.1 mph - N/A   Scattered Clouds
4:36 AM 68.0 °F - 60.8 °F 78% 29.90 in 10.0 mi ESE 9.2 mph - N/A   Scattered Clouds
4:56 AM 66.2 °F - 60.8 °F 83% 29.90 in 10.0 mi East 3.5 mph - N/A   Scattered Clouds
5:17 AM 66.2 °F - 60.8 °F 83% 29.89 in 10.0 mi SSE 5.8 mph - N/A   Scattered Clouds
5:36 AM 66.2 °F - 60.8 °F 83% 29.89 in 10.0 mi ESE 4.6 mph - N/A   Scattered Clouds
5:57 AM 68.0 °F - 60.8 °F 78% 29.89 in 10.0 mi SE 5.8 mph - N/A   Scattered Clouds
6:17 AM 68.0 °F - 62.6 °F 83% 29.89 in 10.0 mi Calm Calm - N/A   Clear
6:36 AM 69.8 °F - 62.6 °F 78% 29.89 in 10.0 mi SSE 10.4 mph - N/A   Clear
6:56 AM 69.8 °F - 62.6 °F 78% 29.89 in 10.0 mi SSE 13.8 mph - N/A   Clear
7:16 AM 69.8 °F - 62.6 °F 78% 29.89 in 10.0 mi South 13.8 mph - N/A   Clear
7:37 AM 71.6 °F - 64.4 °F 78% 29.89 in 10.0 mi South 13.8 mph - N/A   Clear
7:56 AM 75.2 °F - 66.2 °F 73% 29.89 in 10.0 mi South 17.3 mph 21.9 mph N/A   Clear
8:16 AM 75.2 °F - 66.2 °F 73% 29.89 in 10.0 mi SSE 11.5 mph - N/A   Clear
8:37 AM 77.0 °F - 68.0 °F 74% 29.90 in 10.0 mi South 6.9 mph - N/A   Clear
8:56 AM 78.8 °F - 69.8 °F 74% 29.89 in 10.0 mi SSE 5.8 mph - N/A   Clear
9:17 AM 80.6 °F 82.7 °F 66.2 °F 61% 29.90 in 10.0 mi South 8.1 mph - N/A   Clear
9:36 AM 80.6 °F 82.7 °F 66.2 °F 61% 29.90 in 10.0 mi South 4.6 mph - N/A   Clear
9:56 AM 80.6 °F 82.7 °F 66.2 °F 61% 29.91 in 10.0 mi South 4.6 mph - N/A   Clear
10:17 AM 80.6 °F 82.3 °F 64.4 °F 58% 29.90 in 10.0 mi South 5.8 mph - N/A   Clear
10:36 AM 82.4 °F 83.9 °F 64.4 °F 54% 29.91 in 10.0 mi SSW 5.8 mph - N/A   Clear
10:57 AM 82.4 °F 83.9 °F 64.4 °F 54% 29.93 in 10.0 mi WNW 6.9 mph - N/A   Clear
11:16 AM 84.2 °F 85.6 °F 64.4 °F 51% 29.94 in 10.0 mi West 17.3 mph 20.7 mph N/A   Clear
11:36 AM 82.4 °F 83.9 °F 64.4 °F 54% 29.95 in 10.0 mi WNW 5.8 mph 10.4 mph N/A   Clear
11:56 AM 82.4 °F 83.9 °F 64.4 °F 54% 29.94 in 10.0 mi NW 9.2 mph - N/A   Clear
12:16 PM 82.4 °F 83.9 °F 64.4 °F 54% 29.94 in 10.0 mi WNW 6.9 mph - N/A   Clear
12:39 PM 82.4 °F 83.9 °F 64.4 °F 54% 29.94 in 10.0 mi NW 6.9 mph - N/A   Clear
12:58 PM 82.4 °F 83.9 °F 64.4 °F 54% 29.95 in 10.0 mi West 6.9 mph - N/A   Clear
1:16 PM 82.4 °F 84.6 °F 66.2 °F 58% 29.95 in 10.0 mi West 5.8 mph - N/A   Clear
1:36 PM 80.6 °F 82.7 °F 66.2 °F 61% 29.95 in 10.0 mi WNW 6.9 mph - N/A   Clear
1:58 PM 80.6 °F 82.7 °F 66.2 °F 61% 29.97 in 10.0 mi West 8.1 mph - N/A   Clear
2:16 PM 78.8 °F - 66.2 °F 65% 29.98 in 10.0 mi West 6.9 mph - N/A   Clear
2:36 PM 75.2 °F - 66.2 °F 73% 29.99 in 7.0 mi West 18.4 mph 24.2 mph N/A Rain Light Rain
2:56 PM 73.4 °F - 66.2 °F 78% 29.99 in 7.0 mi West 12.7 mph 17.3 mph 0.01 in Rain Rain
3:17 PM 71.6 °F - 62.6 °F 73% 29.97 in 10.0 mi West 9.2 mph - 0.02 in Rain Light Rain
3:36 PM 73.4 °F - 64.4 °F 73% 29.95 in 10.0 mi NW 4.6 mph - 0.02 in   Scattered Clouds
3:58 PM 73.4 °F - 66.2 °F 78% 29.93 in 10.0 mi Calm Calm - N/A   Clear
4:18 PM 73.4 °F - 66.2 °F 78% 29.90 in 10.0 mi NE 6.9 mph - N/A Rain Rain
4:36 PM 73.4 °F - 66.2 °F 78% 29.91 in 10.0 mi ENE 4.6 mph - N/A Rain Light Rain
4:56 PM 73.4 °F - 66.2 °F 78% 29.92 in 7.0 mi Calm Calm - N/A Rain Light Rain
5:16 PM 73.4 °F - 66.2 °F 78% 29.92 in 10.0 mi Calm Calm - 0.03 in Rain Light Rain
5:37 PM 73.4 °F - 66.2 °F 78% 29.92 in 10.0 mi South 6.9 mph - 0.04 in Rain Light Rain
5:56 PM 73.4 °F - 66.2 °F 78% 29.91 in 10.0 mi South 5.8 mph - N/A   Scattered Clouds
6:16 PM 73.4 °F - 64.4 °F 73% 29.92 in 10.0 mi Calm Calm - N/A   Scattered Clouds
6:36 PM 73.4 °F - 64.4 °F 73% 29.92 in 10.0 mi South 4.6 mph - N/A   Mostly Cloudy
6:57 PM 73.4 °F - 64.4 °F 73% 29.92 in 10.0 mi SSW 3.5 mph - N/A   Mostly Cloudy
7:16 PM 73.4 °F - 64.4 °F 73% 29.93 in 10.0 mi South 4.6 mph - N/A   Mostly Cloudy
7:36 PM 73.4 °F - 64.4 °F 73% 29.93 in 10.0 mi South 5.8 mph - N/A   Mostly Cloudy
7:58 PM 73.4 °F - 64.4 °F 73% 29.95 in 10.0 mi South 9.2 mph 17.3 mph N/A   Mostly Cloudy
8:16 PM 71.6 °F - 64.4 °F 78% 29.95 in 10.0 mi South 5.8 mph - N/A   Overcast
8:35 PM 71.6 °F - 64.4 °F 78% 29.95 in 10.0 mi South 4.6 mph - N/A   Overcast
8:55 PM 69.8 °F - 64.4 °F 83% 29.95 in 10.0 mi Calm Calm - N/A   Overcast
9:15 PM 69.8 °F - 62.6 °F 78% 29.94 in 10.0 mi Calm Calm - N/A   Scattered Clouds
9:35 PM 69.8 °F - 62.6 °F 78% 29.94 in 10.0 mi Calm Calm - N/A   Scattered Clouds
9:55 PM 69.8 °F - 62.6 °F 78% 29.95 in 10.0 mi East 3.5 mph - N/A   Mostly Cloudy
10:15 PM 69.8 °F - 62.6 °F 78% 29.95 in 10.0 mi Calm Calm - N/A   Overcast
10:35 PM 69.8 °F - 64.4 °F 83% 29.96 in 10.0 mi NE 3.5 mph - N/A   Overcast
10:55 PM 69.8 °F - 64.4 °F 83% 29.96 in 10.0 mi SE 4.6 mph - N/A   Overcast
11:15 PM 69.8 °F - 64.4 °F 83% 29.97 in 10.0 mi SSE 5.8 mph - N/A   Overcast
11:35 PM 69.8 °F - 64.4 °F 83% 29.98 in 10.0 mi South 6.9 mph - N/A   Overcast
11:55 PM 69.8 °F - 62.6 °F 78% 29.98 in 10.0 mi South 4.6 mph - N/A   Overcast